Dewpoint
-23 -25 -28 -30 -30 -31 -31 -30 -29 -29 -30 -29 -18 -15 -15 -15 -17 -16 -17 -18 -15 -17 -16 -10 -13 -14 -16 -18 -20 -21 -15 -12 -13 -13 -13 -16 -16 -16 -3 2 5 10 12 12 13
-29 -31 -31 -30 -30 -29 -28 -27 -26 -27 -27 -28 -26 -19 -13 -11 -9 -18 -20 -22 -17 -15 -10 -12 -12 -14 -18 -18 -20 -21 -15 -15 -18 -17 -15 -17 -16 -15 -9 6 6 8 9 13 14
-31 -30 -29 -27 -26 -26 -25 -24 -24 -24 -25 -25 -25 -24 -16 -13 -9 -18 -23 -24 -22 -16 -11 -13 -12 -14 -18 -17 -18 -20 -18 -17 -15 -14 -16 -18 -8 -3 -3 2 7 10 12 15 14
-27 -26 -26 -25 -24 -24 -23 -22 -22 -22 -23 -23 -24 -24 -16 -6 -11 -18 -25 -26 -25 -19 -15 -12 -13 -13 -15 -16 -15 -18 -15 -15 -14 -16 -17 -17 -11 -4 -1 3 6 7 12 15 14
-25 -24 -24 -24 -23 -22 -21 -20 -21 -22 -21 -20 -22 -14 -9 -14 -18 -18 -21 -21 -20 -19 -16 -12 -12 -13 -14 -15 -14 -16 -14 -17 -15 -16 -16 -16 -15 -5 -3 2 4 7 13 12 13
-23 -23 -23 -22 -21 -19 -18 -19 -20 -17 -13 -14 -14 -14 -7 -14 -17 -17 -18 -20 -21 -20 -15 -12 -11 -11 -12 -12 -12 -11 -12 -16 -16 -16 -14 -15 -9 -9 -4 -0 3 4 9 10 10
-21 -21 -22 -20 -17 -16 -16 -16 -12 -10 -12 -16 -14 -12 -14 -15 -15 -18 -17 -18 -19 -18 -14 -16 -14 -12 -10 -10 -10 -14 -14 -15 -15 -15 -15 -13 -7 -5 -5 -4 1 2 3 5 8
-21 -21 -20 -16 -16 -12 -11 -9 -11 -16 -16 -14 -14 -11 -13 -13 -13 -15 -17 -18 -17 -17 -16 -16 -16 -13 -11 -11 -14 -11 -12 -10 -15 -16 -16 -15 -10 -5 -5 -5 -2 0 1 2 2
-22 -19 -15 -15 -9 -8 -9 -10 -11 -12 -12 -12 -9 -11 -14 -13 -12 -14 -16 -17 -17 -16 -17 -17 -17 -18 -16 -15 -15 -14 -13 -11 -13 -15 -16 -16 -5 -5 -6 -5 -4 -3 -1 -0 1
-19 -15 -14 -12 -8 -11 -13 -13 -13 -13 -15 -16 -16 -13 -14 -15 -11 -12 -15 -16 -18 -17 -16 -17 -18 -17 -20 -21 -19 -17 -17 -16 -14 -14 -15 -15 -7 -5 -6 -6 -5 -5 -3 -2 -1
-15 -12 -10 -8 -8 -13 -17 -9 -9 -13 -16 -16 -16 -15 -12 -13 -11 -11 -13 -15 -17 -18 -15 -17 -17 -14 -13 -15 -17 -18 -17 -19 -18 -16 -14 -16 -13 -6 -7 -7 -6 -6 -5 -4 -3
-12 -11 -9 -9 -9 -12 -8 -6 -5 -8 -12 -15 -15 -13 -13 -10 -11 -10 -11 -14 -15 -16 -16 -15 -9 -12 -14 -14 -14 -14 -16 -17 -14 -16 -13 -19 -15 -11 -7 -8 -7 -7 -6 -5 -4
-12 -10 -11 -11 -11 -8 -6 -10 -14 -9 -11 -14 -13 -12 -11 -11 -9 -9 -9 -11 -12 -13 -13 -9 -9 -11 -11 -11 -11 -10 -10 -10 -10 -12 -13 -14 -17 -18 -7 -7 -8 -8 -8 -7 -6
-14 -11 -10 -12 -6 -8 -3 -13 -16 -14 -5 -11 -13 -10 -10 -11 -9 -9 -9 -9 -11 -10 -9 -8 -10 -10 -10 -8 -8 -9 -9 -9 -9 -9 -13 -15 -13 -17 -7 -6 -9 -8 -8 -8 -7
-15 -13 -12 -12 -8 -3 -1 -12 -7 -1 4 -12 -12 -9 -10 -10 -10 -9 -9 -9 -9 -10 -8 -5 -8 -8 -8 -7 -8 -8 -9 -9 -9 -9 -9 -12 -11 -14 -9 -7 -8 -7 -8 -8 -7
-11 -13 -13 -7 -11 -11 -13 -14 -7 1 3 -8 -11 -11 -12 -10 -8 -9 -9 -9 -8 -8 -8 -7 -9 -9 -8 -9 -9 -10 -9 -8 -8 -7 -5 -9 -11 -13 -7 -4 -6 -8 -8 -7 -7
-10 -13 -15 -8 -0 -13 -17 -2 0 8 -11 -9 -10 -11 -10 -8 -8 -8 -8 -6 -6 -2 -5 -7 -8 -9 -10 -10 -9 -10 -8 -4 -4 -5 -5 -11 -10 -1 -4 -6 -6 -6 -7 -7 -7
-7 -9 -7 -13 -13 -17 -5 -5 9 -8 -8 -9 -10 -9 -7 -8 -7 -7 -7 -5 -5 -5 -6 -5 1 -8 -11 -9 -9 -8 -7 -4 -3 -8 -9 -11 -8 -4 -5 -6 -6 -6 -6 -6 -6
-5 -3 -4 -7 -11 -10 -1 5 0 -8 -9 -8 -9 -8 -7 -7 -7 -7 -4 -3 -3 -4 -1 -2 -1 -8 -11 -11 -10 -4 -3 -7 -3 -5 -5 -10 -4 -4 -5 -5 -6 -6 -6 -7 -6
-3 -3 -7 -10 -9 -3 -6 -2 -6 -8 -7 -8 -6 -7 -6 -6 -6 -6 -4 -3 -3 -5 -5 -2 1 -7 -10 -9 -9 -7 -8 -3 0 -0 -5 -9 -8 3 -1 -2 -5 -6 -6 -6 -6
-2 -6 -10 -14 -7 -7 4 -5 -6 -7 -6 -4 -6 -6 -5 -5 -5 -4 -3 -3 -5 -6 -5 -4 -3 -2 -8 -4 -3 -5 -5 -6 -6 -3 -1 -0 0 -3 -4 -6 -6 -8 -9 -8 -7
-3 -7 -13 -11 -7 -8 -4 -6 -7 -7 -6 -6 -6 -6 -5 -5 -5 -4 -3 -3 -4 -6 -3 -4 -2 -2 -3 -9 -9 -8 -6 -7 -3 -1 0 1 -0 -6 -9 -9 -9 -9 -9 -9 -9
-9 -8 -9 -6 4 -4 -5 -6 -6 -7 -7 -6 -5 -5 -5 -3 -2 -5 -4 -2 -3 -7 -4 -4 -2 -2 -1 -3 -7 -5 -6 -8 -8 -7 -3 -0 -1 -8 -9 -9 -9 -8 -9 -9 -10
-6 4 -6 -7 -6 -5 -5 -5 -4 -5 -5 -5 -5 -6 -4 -4 -6 -4 -4 -3 -2 -6 -10 -7 -4 -2 1 3 -1 -1 -6 -9 -9 -6 -4 -4 -5 -9 -8 -8 -7 -8 -9 -10 -11
-4 -2 -2 1 -6 -6 -6 -6 -6 -5 -6 -5 -4 -4 -4 -2 -4 -5 -5 -4 -3 -4 -5 -5 -1 -2 -1 -1 -6 -6 -5 -7 -9 -9 -7 -4 -8 -9 -8 -7 -9 -9 -11 -11 -10
-3 -6 -5 -5 -5 -6 -6 -6 -7 -6 -5 -5 -4 -4 -4 -3 -4 -3 -4 -4 -4 -4 -4 -5 0 -2 -3 -4 -6 -5 -6 -6 -7 -8 -9 -8 -8 -7 -10 -9 -8 -9 -9 -9 -9
-5 -4 -4 -6 -6 -7 -7 -6 -6 -6 -4 -5 -5 -4 -4 -5 -5 -4 -4 -3 -3 -2 -2 -3 -0 -0 1 -2 -4 -3 0 -1 -3 -1 -2 -4 0 -8 -7 -7 -7 -8 -8 -8 -9
Wind_Speed
3 4 3 3 3 5 4 3 3 2 1 4 7 5 2 7 14 9 9 11 9 7 6 11 8 6 7 9 9 9 10 13 17 9 12 5 4 1 1 6 7 8 10 3 14
2 2 2 3 4 4 5 4 3 2 2 3 6 7 4 1 2 10 12 10 8 6 7 7 5 6 14 10 7 12 10 8 13 11 8 3 3 3 7 16 15 13 12 7 14
1 1 1 2 3 4 4 4 2 2 2 3 4 6 5 1 4 9 12 10 7 5 10 9 8 9 15 8 6 7 12 7 8 8 5 1 11 13 11 13 14 16 24 10 15
1 2 2 3 3 4 5 4 3 1 2 2 3 3 2 1 2 12 14 10 7 7 8 8 7 10 11 9 5 8 3 5 6 3 3 4 10 14 18 12 10 11 10 12 11
2 3 4 4 4 4 4 3 1 2 3 4 5 6 4 3 8 15 17 14 9 6 5 5 7 5 11 4 7 11 6 1 3 4 3 4 1 13 14 10 11 11 7 10 11
3 3 3 3 3 3 3 3 4 6 8 9 10 8 3 2 11 14 13 10 7 4 4 4 3 5 2 3 7 3 4 3 1 4 1 8 3 9 12 7 9 14 12 10 11
3 3 3 3 2 4 6 7 8 9 10 15 14 9 13 8 11 12 10 9 6 3 2 4 3 6 2 5 3 6 10 6 1 2 3 5 10 6 5 4 8 11 13 12 11
2 2 2 3 5 9 9 10 12 10 7 5 8 7 7 10 10 13 8 7 7 4 2 4 2 1 5 2 6 11 11 12 7 3 8 6 6 7 4 3 7 9 11 12 14
3 4 4 5 10 10 10 10 8 6 4 4 5 2 5 12 14 12 8 3 4 4 4 2 0 2 5 10 10 11 13 17 9 2 4 10 8 5 3 4 5 8 10 11 11
4 5 5 9 10 10 11 13 11 8 3 5 7 4 10 6 16 13 8 5 3 4 5 2 5 8 2 7 10 10 11 5 8 8 6 8 5 5 1 2 3 6 8 10 11
6 6 8 10 10 12 11 4 3 4 15 16 11 11 9 6 8 16 13 5 4 4 6 5 5 7 6 7 7 6 6 7 4 6 8 9 10 8 1 2 3 5 7 10 11
7 8 8 9 9 7 2 1 3 6 10 10 10 10 9 12 8 19 12 4 5 2 3 6 8 4 3 5 5 4 5 7 3 2 8 11 11 11 9 3 4 6 8 10 12
8 8 9 8 6 3 3 4 14 8 4 6 8 11 12 6 17 19 17 6 9 5 5 11 10 2 5 4 6 1 8 6 10 10 15 14 16 14 12 5 4 6 9 11 14
6 8 7 6 3 4 2 10 5 2 5 5 5 7 14 3 4 15 13 4 1 3 5 7 4 3 2 4 10 8 4 7 10 10 10 5 12 12 19 12 6 6 10 13 15
5 6 6 4 1 1 3 5 2 3 3 5 6 3 8 9 11 13 11 7 9 4 6 7 6 6 4 6 8 7 9 11 13 13 13 19 11 14 16 13 7 8 11 13 15
7 6 3 1 1 2 9 5 3 2 1 2 3 5 4 7 6 6 10 3 3 6 12 8 5 8 8 6 5 9 12 14 14 12 13 20 17 15 3 7 6 9 12 14 16
14 11 6 4 2 6 8 2 1 4 1 2 4 4 2 6 4 7 6 13 8 4 5 7 8 5 15 13 5 10 9 7 8 9 12 4 6 12 8 7 7 10 13 15 17
12 9 7 7 8 9 3 3 5 3 3 2 3 2 5 9 5 6 7 5 10 12 7 4 6 10 10 8 8 9 8 6 7 8 9 8 7 8 7 6 8 11 14 16 17
11 9 6 5 5 4 7 5 1 2 3 4 5 6 2 1 5 5 6 7 6 10 8 6 4 4 6 4 8 5 3 8 8 16 10 11 5 9 6 7 9 12 15 17 19
4 3 7 5 6 1 3 1 2 2 4 3 4 2 5 6 5 6 5 5 5 5 6 4 2 1 2 3 0 5 6 4 5 6 14 12 11 6 6 7 9 13 17 17 21
2 2 3 4 3 1 2 4 2 1 3 4 4 4 4 5 5 4 4 5 5 6 4 4 4 5 4 1 2 3 2 4 6 9 10 13 4 3 3 9 12 16 19 20 21
1 1 2 2 3 3 3 2 2 2 1 1 4 4 4 4 3 3 5 4 5 5 4 5 5 4 4 2 4 5 6 6 4 5 7 8 12 3 7 13 16 19 18 18 19
2 4 4 2 2 3 5 3 2 1 2 1 1 3 2 3 3 3 2 3 2 3 7 5 3 5 6 7 7 6 6 6 8 10 12 9 4 4 8 12 16 18 18 18 19
1 2 2 2 2 5 4 2 3 1 2 1 1 2 3 1 1 2 1 2 1 1 3 4 7 5 8 4 3 4 8 7 9 7 9 9 14 15 13 12 16 18 16 15 18
1 0 1 1 3 3 1 1 2 2 1 2 4 3 4 2 2 2 1 3 5 3 4 3 5 6 7 8 12 12 10 12 12 9 8 12 14 13 11 12 16 16 18 17 18
2 2 2 4 3 3 1 0 2 2 3 1 4 2 4 3 4 5 2 2 1 4 5 2 4 2 6 12 13 15 16 16 17 13 11 10 15 14 16 17 17 17 17 18 19
1 5 2 4 3 4 1 1 1 1 2 3 4 2 4 2 4 4 4 3 6 7 4 5 2 4 5 5 10 14 13 15 14 6 5 10 5 14 15 17 17 16 16 19 19
Wind_Direction
295 287 290 313 337 311 311 348 6 352 293 213 198 183 146 72 60 26 12 340 335 343 352 338 284 266 252 246 247 251 255 251 237 219 105 125 193 41 261 241 103 52 23 42 152
282 294 338 7 357 333 357 353 4 331 246 227 222 222 225 10 33 21 353 337 325 335 357 331 314 278 240 237 229 245 242 359 24 47 72 144 344 347 257 79 32 356 6 123 155
323 22 2 22 6 348 351 336 327 301 254 231 229 227 223 305 262 1 347 346 338 325 318 304 287 263 254 240 203 233 268 81 63 52 326 225 103 31 333 78 26 354 331 140 170
62 50 22 26 15 348 341 336 328 317 253 212 219 208 163 202 353 339 349 352 356 359 314 285 260 247 257 222 223 244 313 306 87 64 246 254 76 56 49 47 30 15 47 130 152
32 30 18 11 4 351 342 341 8 123 125 109 112 119 94 137 359 338 350 347 354 336 329 311 285 264 244 241 229 237 127 84 162 190 321 161 4 98 48 45 48 39 67 94 125
32 25 26 14 2 6 20 64 98 115 113 101 93 65 333 72 346 342 343 351 346 356 359 3 315 284 315 260 273 135 174 178 205 126 104 237 105 201 38 44 54 52 53 49 61
33 21 23 27 42 83 91 99 110 113 116 114 108 93 57 10 357 353 352 3 15 12 351 21 321 261 225 169 202 163 173 177 330 262 163 283 178 87 31 61 65 64 58 40 36
53 61 68 86 106 107 99 107 116 112 110 94 89 59 76 12 11 3 17 16 34 33 36 358 23 167 293 162 198 209 232 221 114 237 152 219 171 97 47 61 71 65 62 55 30
68 83 85 100 122 113 106 106 103 87 87 91 28 225 74 15 15 7 11 1 12 36 18 2 63 237 204 228 215 208 245 211 144 69 306 228 124 101 83 88 73 70 59 52 46
92 99 98 122 125 117 105 96 80 40 48 62 15 134 37 5 19 8 351 350 312 298 263 267 232 221 233 242 255 299 207 220 256 89 294 242 194 123 75 91 75 56 52 45 37
110 102 114 129 132 126 119 353 193 75 64 64 59 73 32 5 353 11 1 330 278 247 269 339 243 40 32 351 342 339 295 281 78 45 304 240 270 149 177 217 90 46 33 31 25
125 110 124 135 141 148 37 1 31 126 83 69 67 56 31 23 10 14 14 351 330 312 218 189 76 48 17 349 341 319 291 241 324 252 289 264 242 189 180 124 68 35 28 16 11
140 129 134 145 146 134 93 120 136 135 144 70 56 35 12 22 32 14 9 347 347 42 29 21 75 15 321 30 314 102 329 4 303 324 268 259 257 239 152 174 143 54 24 13 5
141 149 138 141 87 118 50 146 151 226 230 72 18 30 7 330 76 18 11 348 74 32 48 55 54 335 277 90 336 295 52 296 282 284 282 158 280 283 155 185 164 52 15 3 357
100 158 156 170 100 328 195 155 135 295 316 37 55 353 17 43 340 21 10 23 36 66 243 88 56 355 33 4 327 16 321 292 285 276 278 264 242 260 158 185 121 28 1 351 346
89 97 125 9 287 177 168 170 282 236 43 75 10 343 331 44 28 12 34 49 3 62 59 82 85 39 358 303 312 301 283 262 248 257 257 253 250 245 136 41 27 2 349 346 341
78 76 80 117 163 151 153 247 223 64 189 68 355 333 345 20 40 16 11 38 30 303 145 132 61 96 4 314 184 320 295 275 220 215 247 85 284 71 89 52 13 344 333 333 332
76 71 73 85 114 128 171 226 71 347 7 88 303 275 7 355 99 353 331 55 16 334 290 303 170 8 13 22 327 302 321 308 298 301 324 132 248 142 106 50 0 337 328 325 328
64 45 46 97 119 128 276 57 147 356 19 310 232 274 130 171 309 310 69 30 15 11 344 338 94 124 35 353 340 14 282 5 294 264 259 257 113 141 116 9 345 338 331 327 327
48 81 42 75 119 59 42 239 97 9 314 268 309 332 326 21 311 349 30 14 356 22 334 355 268 80 65 276 76 306 341 266 216 273 268 271 297 80 1 330 332 329 329 328 323
55 188 10 96 105 163 98 69 118 89 309 316 335 296 348 344 338 20 38 112 358 336 317 306 253 138 211 88 331 256 294 295 300 294 290 291 295 172 316 332 328 329 323 318 319
32 167 317 133 240 44 71 60 354 109 228 314 316 331 330 0 334 31 7 14 6 326 337 31 317 285 357 121 231 284 308 290 286 299 297 294 290 315 322 349 327 316 321 317 318
47 66 354 34 83 94 136 114 17 235 349 314 356 340 352 339 307 358 26 67 2 330 359 355 241 282 178 208 209 258 272 276 260 255 266 278 282 223 348 325 338 318 315 316 319
217 44 38 64 43 130 153 159 141 51 81 0 49 283 260 265 39 350 1 120 301 335 345 290 279 277 290 316 301 236 245 260 265 274 307 292 323 331 341 337 315 313 312 315 318
47 324 142 182 104 96 171 232 181 195 195 280 188 275 298 302 285 309 17 202 194 168 242 277 267 271 268 256 259 269 263 263 264 273 282 319 308 313 340 316 322 326 318 320 325
130 166 199 124 131 178 155 94 263 139 297 140 284 62 291 276 284 304 300 293 279 191 248 208 279 328 278 243 257 262 258 254 253 265 269 285 288 13 326 327 322 323 327 330 327
116 149 254 152 189 251 55 118 106 266 124 337 315 262 246 8 308 345 326 288 291 278 274 249 266 271 288 332 298 267 250 238 252 238 251 258 310 314 319 316 316 324 325 327 323
Height
1531 1531 1530 1530 1530 1530 1530 1529 1528 1527 1527 1528 1528 1528 1527 1527 1525 1527 1523 1522 1519 1517 1516 1515 1516 1515 1514 1511 1510 1506 1499 1488 1480 1480 1490 1500 1499 1504 1503 1501 1506 1513 1515 1517 1520
1531 1531 1530 1529 1529 1530 1528 1528 1527 1528 1528 1528 1528 1527 1527 1527 1527 1527 1525 1521 1519 1517 1517 1518 1515 1514 1511 1508 1507 1503 1492 1488 1488 1491 1495 1503 1502 1505 1501 1502 1513 1518 1520 1520 1523
1531 1531 1531 1529 1529 1529 1529 1529 1528 1528 1528 1527 1527 1527 1527 1528 1528 1528 1524 1521 1519 1517 1518 1517 1517 1515 1507 1506 1503 1497 1494 1495 1501 1504 1508 1504 1512 1515 1505 1508 1526 1527 1523 1521 1523
1532 1531 1531 1530 1529 1529 1529 1529 1528 1528 1528 1527 1527 1527 1528 1529 1525 1529 1524 1521 1519 1518 1519 1518 1515 1510 1505 1501 1504 1502 1505 1504 1507 1511 1511 1508 1511 1519 1520 1524 1527 1527 1523 1522 1526
1531 1531 1530 1529 1529 1529 1529 1529 1529 1528 1528 1528 1528 1529 1529 1530 1533 1530 1525 1523 1522 1520 1519 1516 1512 1509 1503 1502 1506 1503 1506 1511 1513 1514 1514 1513 1512 1521 1526 1527 1528 1526 1524 1522 1522
1531 1531 1531 1530 1530 1529 1529 1529 1529 1529 1529 1530 1530 1531 1530 1530 1533 1531 1526 1524 1522 1521 1519 1517 1515 1513 1507 1507 1506 1507 1508 1513 1513 1513 1515 1512 1516 1518 1528 1529 1529 1527 1526 1526 1524
1532 1532 1531 1531 1531 1530 1530 1530 1531 1531 1531 1532 1532 1532 1534 1538 1534 1530 1527 1524 1521 1521 1520 1519 1517 1515 1512 1511 1514 1510 1511 1512 1514 1513 1512 1515 1516 1522 1529 1529 1530 1530 1529 1529 1527
1533 1533 1532 1532 1532 1532 1532 1532 1533 1533 1533 1533 1533 1534 1537 1536 1533 1531 1527 1526 1523 1522 1521 1519 1518 1517 1513 1514 1512 1509 1509 1505 1513 1514 1513 1517 1505 1525 1530 1528 1529 1531 1531 1531 1530
1533 1533 1533 1533 1534 1534 1535 1535 1535 1535 1535 1535 1536 1534 1537 1538 1534 1531 1528 1527 1525 1523 1521 1520 1518 1515 1515 1508 1503 1502 1498 1494 1509 1516 1514 1513 1512 1525 1529 1529 1529 1530 1532 1533 1533
1534 1535 1534 1535 1536 1537 1537 1537 1538 1538 1537 1537 1538 1538 1539 1539 1535 1533 1530 1528 1525 1523 1521 1518 1514 1506 1505 1502 1501 1491 1494 1496 1498 1514 1515 1508 1506 1525 1530 1529 1529 1530 1532 1534 1535
1536 1536 1536 1537 1538 1539 1539 1539 1542 1541 1540 1539 1541 1540 1541 1539 1537 1534 1530 1527 1524 1521 1513 1515 1505 1511 1523 1520 1515 1509 1506 1502 1502 1518 1522 1510 1508 1518 1530 1529 1528 1530 1532 1534 1535
1537 1537 1538 1539 1540 1541 1541 1541 1540 1544 1544 1544 1543 1543 1543 1540 1537 1536 1532 1529 1522 1515 1518 1514 1523 1530 1530 1526 1520 1517 1513 1508 1512 1522 1525 1508 1511 1510 1526 1530 1532 1533 1534 1535 1535
1538 1539 1539 1541 1542 1543 1542 1542 1542 1542 1540 1546 1545 1545 1544 1543 1541 1539 1537 1532 1526 1521 1519 1523 1531 1535 1531 1527 1524 1523 1522 1519 1525 1519 1518 1514 1510 1505 1520 1531 1534 1534 1535 1536 1536
1539 1540 1541 1542 1546 1543 1544 1544 1544 1543 1533 1544 1544 1546 1545 1542 1542 1543 1539 1537 1531 1528 1530 1534 1538 1535 1531 1531 1535 1525 1533 1533 1528 1523 1512 1508 1510 1488 1505 1523 1530 1534 1536 1537 1537
1541 1541 1542 1543 1544 1546 1546 1544 1545 1545 1550 1548 1547 1549 1546 1546 1546 1544 1542 1537 1534 1533 1534 1537 1539 1537 1534 1543 1542 1531 1537 1533 1527 1522 1517 1506 1508 1497 1492 1512 1522 1533 1538 1539 1539
1542 1543 1544 1545 1544 1544 1544 1546 1546 1542 1561 1546 1547 1546 1542 1545 1546 1544 1542 1542 1541 1537 1536 1542 1546 1549 1548 1545 1544 1541 1532 1524 1520 1519 1518 1502 1498 1489 1500 1527 1532 1538 1540 1540 1539
1545 1545 1545 1544 1547 1545 1546 1547 1542 1560 1552 1548 1546 1546 1545 1545 1544 1545 1543 1542 1540 1539 1530 1539 1546 1550 1551 1539 1538 1537 1527 1519 1514 1510 1506 1498 1504 1516 1532 1536 1539 1540 1541 1540 1539
1548 1548 1547 1546 1546 1547 1547 1542 1559 1551 1547 1551 1549 1547 1545 1547 1544 1544 1540 1539 1549 1544 1531 1530 1545 1551 1557 1555 1553 1543 1539 1526 1523 1502 1492 1501 1507 1506 1534 1538 1541 1542 1540 1538 1537
1550 1551 1550 1549 1548 1548 1548 1564 1556 1548 1551 1549 1546 1542 1542 1547 1549 1543 1548 1552 1556 1553 1549 1540 1548 1558 1561 1559 1557 1546 1537 1542 1541 1524 1520 1502 1512 1528 1533 1540 1540 1541 1539 1537 1536
1554 1554 1552 1551 1550 1549 1548 1557 1553 1556 1555 1552 1545 1549 1544 1545 1545 1543 1548 1560 1558 1559 1558 1552 1552 1556 1560 1561 1557 1554 1552 1543 1540 1533 1512 1492 1493 1530 1543 1542 1538 1536 1536 1535 1535
1554 1552 1554 1553 1551 1549 1558 1553 1556 1559 1558 1555 1549 1549 1550 1550 1551 1549 1554 1561 1563 1559 1559 1556 1551 1556 1559 1560 1563 1549 1544 1547 1543 1538 1527 1517 1510 1539 1537 1534 1534 1534 1533 1532 1531
1554 1551 1555 1554 1550 1549 1551 1555 1560 1559 1561 1559 1558 1555 1555 1556 1553 1554 1557 1559 1567 1564 1555 1560 1553 1546 1552 1559 1561 1559 1555 1552 1552 1542 1540 1541 1524 1533 1533 1533 1534 1532 1530 1530 1529
1555 1555 1556 1554 1560 1552 1559 1560 1561 1560 1560 1559 1558 1560 1560 1558 1558 1557 1559 1567 1567 1564 1561 1560 1548 1541 1552 1558 1558 1556 1554 1554 1550 1547 1543 1538 1526 1531 1532 1532 1534 1532 1530 1528 1526
1556 1560 1558 1556 1555 1553 1556 1557 1559 1563 1562 1562 1561 1562 1560 1558 1559 1559 1559 1565 1567 1566 1568 1567 1552 1555 1546 1557 1557 1559 1550 1550 1546 1538 1530 1526 1528 1527 1531 1535 1534 1530 1528 1527 1525
1558 1559 1559 1560 1556 1556 1557 1558 1557 1558 1562 1562 1559 1560 1559 1559 1558 1558 1561 1562 1565 1566 1566 1564 1560 1557 1561 1563 1552 1546 1547 1547 1541 1540 1541 1539 1536 1531 1534 1534 1531 1528 1526 1524 1523
1560 1559 1560 1560 1560 1557 1560 1557 1556 1558 1561 1559 1560 1560 1561 1560 1559 1558 1560 1558 1560 1560 1561 1562 1561 1567 1558 1552 1548 1544 1540 1537 1536 1535 1536 1538 1534 1535 1534 1533 1529 1527 1525 1523 1520
1559 1560 1560 1562 1560 1557 1556 1558 1559 1562 1564 1564 1563 1561 1560 1560 1562 1562 1562 1562 1562 1560 1556 1558 1560 1560 1546 1548 1542 1533 1531 1534 1536 1541 1545 1544 1539 1539 1536 1533 1530 1527 1525 1523 1519